| time (UTC) | temp F | wind direction | speed MPH | gust MPH | rain 1hr in | rain 24hr in | rain mn in | humidity % | barometer mb |
| 20260506181906 | 65 | 157 | 2.0 | 3.0 | 0.00 | 0.00 | 0.00 | 78 | 1016.9 |
| 20260506181404 | 66 | 180 | 2.0 | 3.0 | 0.00 | 0.00 | 0.00 | 78 | 1016.7 |
| 20260506180901 | 66 | 168 | 2.0 | 3.0 | 0.00 | 0.00 | 0.00 | 78 | 1016.8 |
| 20260506180359 | 66 | 180 | 3.0 | 3.0 | 0.00 | 0.00 | 0.00 | 78 | 1016.9 |
| 20260506175857 | 66 | 180 | 3.0 | 3.0 | 0.00 | 0.00 | 0.00 | 78 | 1016.9 |
| 20260506175354 | 66 | 180 | 2.0 | 3.0 | 0.00 | 0.00 | 0.00 | 78 | 1016.8 |
| 20260506174853 | 66 | 180 | 2.0 | 3.0 | 0.00 | 0.00 | 0.00 | 78 | 1016.8 |
| 20260506174349 | 66 | 180 | 2.0 | 3.0 | 0.00 | 0.00 | 0.00 | 78 | 1016.8 |
| 20260506173847 | 66 | 180 | 2.0 | 3.0 | 0.00 | 0.00 | 0.00 | 78 | 1016.6 |
| 20260506173345 | 66 | 180 | 2.0 | 3.0 | 0.00 | 0.00 | 0.00 | 78 | 1016.6 |
| 20260506172843 | 66 | 180 | 3.0 | 3.0 | 0.00 | 0.00 | 0.00 | 78 | 1016.8 |
| 20260506172341 | 66 | 180 | 2.0 | 3.0 | 0.00 | 0.00 | 0.00 | 78 | 1016.7 |
| 20260506171839 | 66 | 180 | 3.0 | 3.0 | 0.00 | 0.00 | 0.00 | 79 | 1016.7 |
| 20260506171336 | 66 | 180 | 3.0 | 4.0 | 0.00 | 0.00 | 0.00 | 79 | 1016.7 |
| 20260506170834 | 66 | 180 | 3.0 | 3.0 | 0.00 | 0.00 | 0.00 | 79 | 1016.7 |
| 20260506170331 | 66 | 180 | 2.0 | 3.0 | 0.00 | 0.00 | 0.00 | 78 | 1016.7 |
| 20260506165829 | 66 | 180 | 1.0 | 2.0 | 0.00 | 0.00 | 0.00 | 78 | 1016.8 |
| 20260506165327 | 66 | 180 | 2.0 | 2.0 | 0.00 | 0.00 | 0.00 | 78 | 1016.8 |
| 20260506164824 | 66 | 180 | 1.0 | 2.0 | 0.00 | 0.00 | 0.00 | 79 | 1016.9 |
| 20260506164322 | 66 | 225 | 1.0 | 1.0 | 0.00 | 0.00 | 0.00 | 79 | 1016.9 |
| 20260506163820 | 66 | 180 | 2.0 | 3.0 | 0.00 | 0.00 | 0.00 | 79 | 1017.0 |
| 20260506163318 | 66 | 180 | 2.0 | 2.0 | 0.00 | 0.00 | 0.00 | 79 | 1016.9 |
| 20260506162816 | 66 | 180 | 2.0 | 2.0 | 0.00 | 0.00 | 0.00 | 79 | 1016.9 |
| 20260506162313 | 66 | 180 | 2.0 | 2.0 | 0.00 | 0.00 | 0.00 | 78 | 1017.0 |
| 20260506161811 | 66 | 180 | 1.0 | 3.0 | 0.00 | 0.00 | 0.00 | 78 | 1017.0 |
| 20260506161308 | 66 | 191 | 2.0 | 3.0 | 0.00 | 0.00 | 0.00 | 79 | 1017.0 |
| 20260506160806 | 66 | 180 | 3.0 | 4.0 | 0.00 | 0.00 | 0.00 | 78 | 1017.0 |
| 20260506160304 | 66 | 191 | 2.0 | 4.0 | 0.00 | 0.00 | 0.00 | 78 | 1017.1 |
| 20260506155801 | 66 | 180 | 3.0 | 4.0 | 0.00 | 0.00 | 0.00 | 77 | 1017.1 |
| 20260506155259 | 66 | 180 | 2.0 | 3.0 | 0.00 | 0.00 | 0.00 | 77 | 1017.0 |
| 20260506154757 | 67 | 157 | 3.0 | 4.0 | 0.00 | 0.00 | 0.00 | 77 | 1017.1 |
| 20260506154255 | 67 | 180 | 4.0 | 4.0 | 0.00 | 0.00 | 0.00 | 77 | 1017.1 |
| 20260506153753 | 67 | 180 | 2.0 | 4.0 | 0.00 | 0.00 | 0.00 | 76 | 1017.3 |
| 20260506153251 | 67 | 180 | 2.0 | 5.0 | 0.00 | 0.00 | 0.00 | 75 | 1017.1 |
| 20260506152748 | 67 | 180 | 2.0 | 4.0 | 0.00 | 0.00 | 0.00 | 75 | 1017.1 |
| 20260506152245 | 67 | 191 | 2.0 | 3.0 | 0.00 | 0.00 | 0.00 | 75 | 1017.2 |
| 20260506151743 | 67 | 180 | 3.0 | 4.0 | 0.00 | 0.00 | 0.00 | 75 | 1017.0 |
| 20260506151241 | 67 | 180 | 3.0 | 3.0 | 0.00 | 0.00 | 0.00 | 74 | 1017.0 |
| 20260506150743 | 67 | 168 | 2.0 | 2.0 | 0.00 | 0.00 | 0.00 | 73 | 1017.0 |
| 20260506150236 | 68 | 180 | 1.0 | 1.0 | 0.00 | 0.00 | 0.00 | 73 | 1016.9 |
| 20260506145736 | 68 | 135 | 0.0 | 1.0 | 0.00 | 0.00 | 0.00 | 72 | 1017.0 |
| 20260506145232 | 68 | 90 | 1.0 | 2.0 | 0.00 | 0.00 | 0.00 | 73 | 1017.1 |
| 20260506144730 | 68 | 90 | 0.0 | 2.0 | 0.00 | 0.00 | 0.00 | 72 | 1017.0 |
| 20260506144228 | 68 | 90 | 2.0 | 3.0 | 0.00 | 0.00 | 0.00 | 73 | 1017.0 |
| 20260506143725 | 68 | 90 | 2.0 | 3.0 | 0.00 | 0.00 | 0.00 | 71 | 1016.9 |
| 20260506143222 | 68 | 135 | 3.0 | 4.0 | 0.00 | 0.00 | 0.00 | 71 | 1016.9 |
| 20260506142720 | 68 | 135 | 2.0 | 4.0 | 0.00 | 0.00 | 0.00 | 70 | 1016.9 |
| 20260506142218 | 68 | 123 | 3.0 | 4.0 | 0.00 | 0.00 | 0.00 | 70 | 1017.0 |
| 20260506141716 | 68 | 135 | 3.0 | 5.0 | 0.00 | 0.00 | 0.00 | 71 | 1017.1 |
| 20260506141215 | 68 | 112 | 4.0 | 5.0 | 0.00 | 0.00 | 0.00 | 70 | 1017.1 |
| 20260506140711 | 68 | 123 | 4.0 | 4.0 | 0.00 | 0.00 | 0.00 | 71 | 1017.1 |
| 20260506140209 | 69 | 112 | 3.0 | 3.0 | 0.00 | 0.00 | 0.00 | 67 | 1017.0 |
| 20260506135707 | 69 | 135 | 3.0 | 3.0 | 0.00 | 0.00 | 0.00 | 66 | 1017.1 |
| 20260506135205 | 69 | 191 | 2.0 | 3.0 | 0.00 | 0.00 | 0.00 | 66 | 1017.1 |
| 20260506134702 | 69 | 180 | 1.0 | 2.0 | 0.00 | 0.00 | 0.00 | 65 | 1017.1 |
| 20260506134250 | 69 | 168 | 1.0 | 2.0 | 0.00 | 0.00 | 0.00 | 64 | 1017.3 |
| 20260506133657 | 69 | 180 | 1.0 | 2.0 | 0.00 | 0.00 | 0.00 | 64 | 1017.1 |
| 20260506133155 | 69 | 180 | 1.0 | 1.0 | 0.00 | 0.00 | 0.00 | 64 | 1017.0 |
| 20260506132653 | 70 | 135 | 1.0 | 2.0 | 0.00 | 0.00 | 0.00 | 64 | 1017.0 |
| 20260506132151 | 70 | 135 | 1.0 | 2.0 | 0.00 | 0.00 | 0.00 | 63 | 1017.0 |
| 20260506131648 | 70 | 135 | 2.0 | 4.0 | 0.00 | 0.00 | 0.00 | 63 | 1017.1 |
| 20260506131146 | 70 | 135 | 3.0 | 5.0 | 0.00 | 0.00 | 0.00 | 64 | 1017.0 |
| 20260506130644 | 70 | 90 | 4.0 | 5.0 | 0.00 | 0.00 | 0.00 | 64 | 1016.9 |
| 20260506130142 | 70 | 90 | 5.0 | 8.0 | 0.00 | 0.00 | 0.00 | 64 | 1016.9 |
| 20260506125639 | 70 | 90 | 7.0 | 8.0 | 0.00 | 0.00 | 0.00 | 64 | 1016.9 |
| 20260506125136 | 70 | 90 | 6.0 | 7.0 | 0.00 | 0.00 | 0.00 | 63 | 1016.8 |
| 20260506124634 | 70 | 135 | 3.0 | 9.0 | 0.00 | 0.00 | 0.00 | 62 | 1016.7 |
| 20260506124132 | 70 | 90 | 4.0 | 7.0 | 0.00 | 0.00 | 0.00 | 62 | 1016.9 |
| 20260506123630 | 70 | 90 | 2.0 | 3.0 | 0.00 | 0.00 | 0.00 | 62 | 1016.6 |
| 20260506123128 | 70 | 135 | 3.0 | 3.0 | 0.00 | 0.00 | 0.00 | 61 | 1016.5 |
| 20260506122626 | 70 | 180 | 4.0 | 4.0 | 0.00 | 0.00 | 0.00 | 61 | 1016.6 |
| 20260506122123 | 70 | 146 | 3.0 | 3.0 | 0.00 | 0.00 | 0.00 | 60 | 1016.6 |
| 20260506121621 | 70 | 146 | 2.0 | 3.0 | 0.00 | 0.00 | 0.00 | 60 | 1016.6 |
| 20260506121119 | 70 | 157 | 2.0 | 3.0 | 0.00 | 0.00 | 0.00 | 60 | 1016.6 |
| 20260506120616 | 70 | 180 | 2.0 | 3.0 | 0.00 | 0.00 | 0.00 | 59 | 1016.6 |
| 20260506120114 | 71 | 202 | 1.0 | 3.0 | 0.00 | 0.00 | 0.00 | 59 | 1016.5 |
| 20260506115611 | 71 | 180 | 3.0 | 3.0 | 0.00 | 0.00 | 0.00 | 59 | 1016.5 |
| 20260506115109 | 71 | 180 | 2.0 | 3.0 | 0.00 | 0.00 | 0.00 | 58 | 1016.5 |
| 20260506114607 | 71 | 180 | 1.0 | 4.0 | 0.00 | 0.00 | 0.00 | 58 | 1016.4 |
| 20260506114105 | 71 | 180 | 2.0 | 3.0 | 0.00 | 0.00 | 0.00 | 58 | 1016.4 |
| 20260506113603 | 71 | 135 | 1.0 | 5.0 | 0.00 | 0.00 | 0.00 | 58 | 1016.3 |
| 20260506113100 | 71 | 168 | 3.0 | 3.0 | 0.00 | 0.00 | 0.00 | 58 | 1016.3 |
| 20260506112600 | 71 | 180 | 2.0 | 3.0 | 0.00 | 0.00 | 0.00 | 58 | 1016.3 |
| 20260506112056 | 71 | 180 | 3.0 | 3.0 | 0.00 | 0.00 | 0.00 | 58 | 1016.3 |
| 20260506111553 | 71 | 202 | 2.0 | 3.0 | 0.00 | 0.00 | 0.00 | 58 | 1016.3 |
| 20260506111051 | 71 | 180 | 1.0 | 1.0 | 0.00 | 0.00 | 0.00 | 57 | 1016.3 |
| 20260506110549 | 72 | 225 | 0.0 | 1.0 | 0.00 | 0.00 | 0.00 | 57 | 1016.2 |
| 20260506110046 | 72 | 180 | 1.0 | 1.0 | 0.00 | 0.00 | 0.00 | 57 | 1016.3 |
| 20260506105544 | 72 | 225 | 0.0 | 0.0 | 0.00 | 0.00 | 0.00 | 56 | 1016.2 |
| 20260506105044 | 72 | 180 | 0.0 | 0.0 | 0.00 | 0.00 | 0.00 | 56 | 1016.2 |
| 20260506104540 | 72 | 135 | 1.0 | 1.0 | 0.00 | 0.00 | 0.00 | 56 | 1016.0 |
| 20260506104038 | 72 | 180 | 0.0 | 1.0 | 0.00 | 0.00 | 0.00 | 56 | 1016.1 |
| 20260506103535 | 73 | 112 | 1.0 | 1.0 | 0.00 | 0.00 | 0.00 | 56 | 1016.1 |
| 20260506103033 | 73 | 112 | 2.0 | 3.0 | 0.00 | 0.00 | 0.00 | 56 | 1016.1 |
| 20260506102530 | 73 | 135 | 3.0 | 4.0 | 0.00 | 0.00 | 0.00 | 56 | 1016.0 |
| 20260506102028 | 73 | 135 | 3.0 | 3.0 | 0.00 | 0.00 | 0.00 | 56 | 1016.0 |
| 20260506101526 | 73 | 135 | 3.0 | 3.0 | 0.00 | 0.00 | 0.00 | 56 | 1016.0 |
| 20260506101025 | 73 | 135 | 2.0 | 3.0 | 0.00 | 0.00 | 0.00 | 56 | 1016.0 |
| 20260506100521 | 73 | 135 | 3.0 | 3.0 | 0.00 | 0.00 | 0.00 | 55 | 1016.0 |
| 20260506100019 | 73 | 135 | 2.0 | 2.0 | 0.00 | 0.00 | 0.00 | 55 | 1016.0 |
| 20260506095517 | 73 | 135 | 2.0 | 2.0 | 0.00 | 0.00 | 0.00 | 55 | 1015.9 |
| 20260506095015 | 73 | 157 | 1.0 | 2.0 | 0.00 | 0.00 | 0.00 | 55 | 1015.8 |
| 20260506094513 | 73 | 157 | 2.0 | 2.0 | 0.00 | 0.00 | 0.00 | 55 | 1015.8 |
| 20260506093508 | 74 | 180 | 2.0 | 3.0 | 0.00 | 0.00 | 0.00 | 54 | 1015.6 |
| 20260506093005 | 74 | 135 | 1.0 | 1.0 | 0.00 | 0.00 | 0.00 | 54 | 1015.6 |
| 20260506092503 | 74 | 135 | 1.0 | 1.0 | 0.00 | 0.00 | 0.00 | 54 | 1015.5 |
| 20260506092001 | 74 | 135 | 2.0 | 2.0 | 0.00 | 0.00 | 0.00 | 54 | 1015.3 |
| 20260506091458 | 74 | 135 | 2.0 | 3.0 | 0.00 | 0.00 | 0.00 | 53 | 1015.3 |
| 20260506090956 | 74 | 135 | 2.0 | 3.0 | 0.00 | 0.00 | 0.00 | 53 | 1015.2 |
| 20260506090454 | 74 | 135 | 3.0 | 4.0 | 0.00 | 0.00 | 0.00 | 53 | 1015.2 |
| 20260506085952 | 75 | 157 | 4.0 | 4.0 | 0.00 | 0.00 | 0.00 | 52 | 1015.0 |
| 20260506085450 | 75 | 168 | 4.0 | 4.0 | 0.00 | 0.00 | 0.00 | 52 | 1014.9 |
| 20260506084947 | 75 | 135 | 4.0 | 4.0 | 0.00 | 0.00 | 0.00 | 52 | 1014.7 |
| 20260506084445 | 76 | 180 | 3.0 | 4.0 | 0.00 | 0.00 | 0.00 | 51 | 1014.8 |
| 20260506083942 | 76 | 135 | 3.0 | 3.0 | 0.00 | 0.00 | 0.00 | 51 | 1014.7 |
| 20260506083440 | 76 | 135 | 4.0 | 4.0 | 0.00 | 0.00 | 0.00 | 51 | 1014.6 |
| 20260506082938 | 76 | 135 | 4.0 | 4.0 | 0.00 | 0.00 | 0.00 | 50 | 1014.5 |
| 20260506082435 | 77 | 180 | 3.0 | 3.0 | 0.00 | 0.00 | 0.00 | 50 | 1014.4 |
| 20260506081933 | 77 | 135 | 3.0 | 3.0 | 0.00 | 0.00 | 0.00 | 49 | 1014.4 |
| 20260506081431 | 77 | 135 | 3.0 | 4.0 | 0.00 | 0.00 | 0.00 | 49 | 1014.3 |
| 20260506080929 | 78 | 168 | 3.0 | 3.0 | 0.00 | 0.00 | 0.00 | 49 | 1014.3 |
| 20260506080427 | 78 | 135 | 3.0 | 3.0 | 0.00 | 0.00 | 0.00 | 48 | 1014.3 |
| 20260506073413 | 80 | 112 | 3.0 | 5.0 | 0.00 | 0.00 | 0.00 | 46 | 1014.0 |
| 20260506072910 | 80 | 135 | 4.0 | 4.0 | 0.00 | 0.00 | 0.00 | 45 | 1014.1 |
| 20260506072410 | 81 | 101 | 4.0 | 5.0 | 0.00 | 0.00 | 0.00 | 45 | 1014.0 |
| 20260506071906 | 81 | 90 | 3.0 | 4.0 | 0.00 | 0.00 | 0.00 | 45 | 1013.9 |
| 20260506071404 | 81 | 90 | 4.0 | 5.0 | 0.00 | 0.00 | 0.00 | 44 | 1013.8 |
| 20260506070902 | 82 | 112 | 3.0 | 5.0 | 0.00 | 0.00 | 0.00 | 44 | 1013.7 |
| 20260506070359 | 82 | 135 | 5.0 | 7.0 | 0.00 | 0.00 | 0.00 | 43 | 1013.7 |
| 20260506061839 | 83 | 112 | 4.0 | 6.0 | 0.00 | 0.00 | 0.00 | 42 | 1013.3 |
| 20260506061339 | 84 | 146 | 4.0 | 4.0 | 0.00 | 0.00 | 0.00 | 42 | 1013.3 |
| 20260506060833 | 84 | 112 | 6.0 | 7.0 | 0.00 | 0.00 | 0.00 | 41 | 1013.3 |
| 20260506060331 | 84 | 90 | 4.0 | 7.0 | 0.00 | 0.00 | 0.00 | 42 | 1013.3 |
| 20260506051308 | 84 | 135 | 7.0 | 9.0 | 0.00 | 0.00 | 0.00 | 43 | 1013.3 |
| 20260506050806 | 84 | 135 | 9.0 | 12.0 | 0.00 | 0.00 | 0.00 | 42 | 1013.3 |
| 20260506050304 | 85 | 135 | 10.0 | 12.0 | 0.00 | 0.00 | 0.00 | 42 | 1013.4 |
| 20260506044757 | 84 | 45 | 1.0 | 9.0 | 0.00 | 0.00 | 0.00 | 43 | 1013.6 |
| 20260506044407 | 84 | 90 | 10.0 | 11.0 | 0.00 | 0.00 | 0.00 | 42 | 1013.4 |
| 20260506043904 | 84 | 135 | 8.0 | 13.0 | 0.00 | 0.00 | 0.00 | 41 | 1013.4 |
| 20260506043402 | 84 | 90 | 6.0 | 12.0 | 0.00 | 0.00 | 0.00 | 42 | 1013.5 |
| 20260506042858 | 84 | 90 | 6.0 | 10.0 | 0.00 | 0.00 | 0.00 | 42 | 1013.6 |
| 20260506042357 | 84 | 90 | 7.0 | 11.0 | 0.00 | 0.00 | 0.00 | 42 | 1013.6 |
| 20260506041853 | 84 | 135 | 9.0 | 11.0 | 0.00 | 0.00 | 0.00 | 42 | 1013.6 |
| 20260506041352 | 85 | 135 | 8.0 | 10.0 | 0.00 | 0.00 | 0.00 | 41 | 1013.5 |
| 20260506040851 | 84 | 135 | 8.0 | 8.0 | 0.00 | 0.00 | 0.00 | 43 | 1013.7 |
| 20260506040348 | 84 | 90 | 8.0 | 11.0 | 0.00 | 0.00 | 0.00 | 43 | 1013.7 |
| 20260506035846 | 84 | 123 | 7.0 | 9.0 | 0.00 | 0.00 | 0.00 | 41 | 1013.7 |
| 20260506035342 | 84 | 112 | 8.0 | 8.0 | 0.00 | 0.00 | 0.00 | 43 | 1013.9 |
| 20260506034840 | 84 | 90 | 6.0 | 10.0 | 0.00 | 0.00 | 0.00 | 44 | 1014.0 |
| 20260506034339 | 84 | 135 | 5.0 | 12.0 | 0.00 | 0.00 | 0.00 | 44 | 1014.1 |
| 20260506033836 | 84 | 135 | 9.0 | 13.0 | 0.00 | 0.00 | 0.00 | 44 | 1014.0 |
| 20260506033334 | 84 | 45 | 13.0 | 13.0 | 0.00 | 0.00 | 0.00 | 43 | 1014.0 |
| 20260506033033 | 84 | 90 | 4.0 | 10.0 | 0.00 | 0.00 | 0.00 | 44 | 1014.2 |
| 20260506032530 | 83 | 90 | 5.0 | 8.0 | 0.00 | 0.00 | 0.00 | 45 | 1014.2 |
| 20260506032029 | 83 | 135 | 9.0 | 10.0 | 0.00 | 0.00 | 0.00 | 46 | 1014.4 |
| 20260506031524 | 83 | 135 | 11.0 | 11.0 | 0.00 | 0.00 | 0.00 | 46 | 1014.4 |
| 20260506031422 | 83 | 67 | 2.0 | 8.0 | 0.00 | 0.00 | 0.00 | 47 | 1014.5 |
| 20260506030921 | 83 | 146 | 6.0 | 9.0 | 0.00 | 0.00 | 0.00 | 47 | 1014.5 |
| 20260506030417 | 83 | 112 | 6.0 | 10.0 | 0.00 | 0.00 | 0.00 | 46 | 1014.6 |
| 20260506025915 | 83 | 90 | 4.0 | 12.0 | 0.00 | 0.00 | 0.00 | 46 | 1014.7 |
| 20260506025732 | 83 | 135 | 12.0 | 12.0 | 0.00 | 0.00 | 0.00 | 46 | 1014.6 |
| 20260506025431 | 83 | 90 | 4.0 | 12.0 | 0.00 | 0.00 | 0.00 | 46 | 1014.6 |
| 20260506024928 | 83 | 112 | 11.0 | 11.0 | 0.00 | 0.00 | 0.00 | 46 | 1014.7 |
| 20260506024426 | 83 | 180 | 6.0 | 9.0 | 0.00 | 0.00 | 0.00 | 48 | 1014.9 |
| 20260506023924 | 83 | 202 | 3.0 | 9.0 | 0.00 | 0.00 | 0.00 | 48 | 1014.9 |
| 20260506023423 | 82 | 90 | 5.0 | 5.0 | 0.00 | 0.00 | 0.00 | 48 | 1015.0 |
| 20260506022919 | 82 | 90 | 9.0 | 12.0 | 0.00 | 0.00 | 0.00 | 48 | 1015.2 |
| 20260506022417 | 82 | 90 | 7.0 | 13.0 | 0.00 | 0.00 | 0.00 | 49 | 1015.3 |
| 20260506021915 | 82 | 135 | 7.0 | 13.0 | 0.00 | 0.00 | 0.00 | 49 | 1015.3 |
| 20260506021412 | 82 | 135 | 10.0 | 10.0 | 0.00 | 0.00 | 0.00 | 51 | 1015.4 |
| 20260506020909 | 82 | 90 | 5.0 | 9.0 | 0.00 | 0.00 | 0.00 | 51 | 1015.4 |
| 20260506020407 | 82 | 135 | 7.0 | 13.0 | 0.00 | 0.00 | 0.00 | 52 | 1015.5 |
| 20260506015905 | 81 | 90 | 6.0 | 9.0 | 0.00 | 0.00 | 0.00 | 50 | 1015.6 |
| 20260506015403 | 81 | 90 | 8.0 | 8.0 | 0.00 | 0.00 | 0.00 | 51 | 1015.7 |
| 20260506014901 | 81 | 135 | 7.0 | 11.0 | 0.00 | 0.00 | 0.00 | 51 | 1015.9 |
| 20260506014359 | 81 | 157 | 7.0 | 9.0 | 0.00 | 0.00 | 0.00 | 53 | 1016.0 |
| 20260506013856 | 81 | 135 | 7.0 | 10.0 | 0.00 | 0.00 | 0.00 | 54 | 1016.2 |
| 20260506013354 | 80 | 168 | 7.0 | 11.0 | 0.00 | 0.00 | 0.00 | 54 | 1016.3 |
| 20260506012852 | 80 | 180 | 5.0 | 9.0 | 0.00 | 0.00 | 0.00 | 55 | 1016.3 |
| 20260506012349 | 80 | 135 | 10.0 | 11.0 | 0.00 | 0.00 | 0.00 | 56 | 1016.5 |
| 20260506011847 | 79 | 112 | 5.0 | 11.0 | 0.00 | 0.00 | 0.00 | 57 | 1016.5 |
| 20260506011344 | 79 | 90 | 6.0 | 14.0 | 0.00 | 0.00 | 0.00 | 57 | 1016.7 |
| 20260506010710 | 79 | 157 | 2.0 | 9.0 | 0.00 | 0.00 | 0.00 | 58 | 1016.8 |
| 20260506010208 | 79 | 135 | 9.0 | 12.0 | 0.00 | 0.00 | 0.00 | 58 | 1017.0 |
| 20260506005706 | 78 | 135 | 10.0 | 10.0 | 0.00 | 0.00 | 0.00 | 59 | 1017.0 |
| 20260506005204 | 78 | 135 | 10.0 | 12.0 | 0.00 | 0.00 | 0.00 | 59 | 1017.2 |
| 20260506004701 | 78 | 135 | 5.0 | 14.0 | 0.00 | 0.00 | 0.00 | 60 | 1017.3 |
| 20260506004209 | 78 | 135 | 13.0 | 13.0 | 0.00 | 0.00 | 0.00 | 60 | 1017.4 |
| 20260506003917 | 78 | 135 | 4.0 | 11.0 | 0.00 | 0.00 | 0.00 | 60 | 1017.4 |
| 20260506003414 | 77 | 135 | 8.0 | 13.0 | 0.00 | 0.00 | 0.00 | 61 | 1017.5 |
| 20260506002913 | 77 | 135 | 6.0 | 15.0 | 0.00 | 0.00 | 0.00 | 61 | 1017.6 |
| 20260506002552 | 77 | 135 | 15.0 | 15.0 | 0.00 | 0.00 | 0.00 | 61 | 1017.6 |
| 20260506002047 | 77 | 112 | 10.0 | 10.0 | 0.00 | 0.00 | 0.00 | 61 | 1017.7 |
| 20260506001545 | 76 | 135 | 10.0 | 10.0 | 0.00 | 0.00 | 0.00 | 63 | 1017.9 |
| 20260506001043 | 76 | 135 | 9.0 | 12.0 | 0.00 | 0.00 | 0.00 | 64 | 1017.8 |
| 20260506000541 | 75 | 135 | 9.0 | 14.0 | 0.00 | 0.00 | 0.00 | 64 | 1017.9 |
| 20260506000039 | 75 | 180 | 9.0 | 12.0 | 0.00 | 0.00 | 0.00 | 65 | 1017.9 |
| 20260505235536 | 75 | 112 | 9.0 | 13.0 | 0.00 | 0.00 | 0.00 | 65 | 1017.9 |
| 20260505235034 | 75 | 112 | 10.0 | 12.0 | 0.00 | 0.00 | 0.00 | 65 | 1018.0 |
| 20260505234534 | 75 | 135 | 7.0 | 13.0 | 0.00 | 0.00 | 0.00 | 67 | 1018.1 |
| 20260505234029 | 74 | 135 | 11.0 | 13.0 | 0.00 | 0.00 | 0.00 | 67 | 1018.1 |
| 20260505233527 | 74 | 135 | 9.0 | 14.0 | 0.00 | 0.00 | 0.00 | 67 | 1018.1 |
| 20260505233024 | 74 | 135 | 8.0 | 11.0 | 0.00 | 0.00 | 0.00 | 68 | 1018.1 |
| 20260505232522 | 73 | 135 | 9.0 | 12.0 | 0.00 | 0.00 | 0.00 | 69 | 1018.1 |
| 20260505232020 | 73 | 135 | 10.0 | 14.0 | 0.00 | 0.00 | 0.00 | 69 | 1018.2 |
| 20260505231518 | 73 | 135 | 10.0 | 13.0 | 0.00 | 0.00 | 0.00 | 69 | 1018.2 |
| 20260505231016 | 72 | 135 | 8.0 | 13.0 | 0.00 | 0.00 | 0.00 | 71 | 1018.3 |
| 20260505230513 | 72 | 135 | 10.0 | 14.0 | 0.00 | 0.00 | 0.00 | 71 | 1018.3 |
| 20260505230011 | 72 | 157 | 10.0 | 14.0 | 0.00 | 0.00 | 0.00 | 72 | 1018.1 |
| 20260505225508 | 72 | 157 | 8.0 | 11.0 | 0.00 | 0.00 | 0.00 | 73 | 1018.2 |
| 20260505225006 | 71 | 135 | 8.0 | 12.0 | 0.00 | 0.00 | 0.00 | 75 | 1018.1 |
| 20260505224504 | 71 | 168 | 8.0 | 11.0 | 0.00 | 0.00 | 0.00 | 76 | 1018.3 |
| 20260505224002 | 70 | 146 | 8.0 | 13.0 | 0.00 | 0.00 | 0.00 | 76 | 1018.1 |
| 20260505223500 | 70 | 157 | 5.0 | 10.0 | 0.00 | 0.00 | 0.00 | 78 | 1018.2 |
| 20260505222957 | 70 | 135 | 8.0 | 13.0 | 0.00 | 0.00 | 0.00 | 78 | 1018.1 |
| 20260505222455 | 69 | 146 | 11.0 | 14.0 | 0.00 | 0.00 | 0.00 | 79 | 1018.2 |
| 20260505221954 | 69 | 157 | 9.0 | 12.0 | 0.00 | 0.00 | 0.00 | 80 | 1018.1 |
| 20260505221451 | 69 | 135 | 11.0 | 15.0 | 0.00 | 0.00 | 0.00 | 81 | 1018.1 |
| 20260505220948 | 68 | 157 | 9.0 | 11.0 | 0.00 | 0.00 | 0.00 | 82 | 1018.1 |
| 20260505220445 | 68 | 135 | 9.0 | 11.0 | 0.00 | 0.00 | 0.00 | 84 | 1018.2 |
| 20260505215945 | 67 | 135 | 8.0 | 9.0 | 0.00 | 0.00 | 0.00 | 86 | 1018.3 |
| 20260505215441 | 67 | 180 | 8.0 | 10.0 | 0.00 | 0.00 | 0.00 | 87 | 1018.3 |
| 20260505214939 | 66 | 135 | 9.0 | 10.0 | 0.00 | 0.00 | 0.00 | 87 | 1018.4 |
| 20260505214437 | 66 | 146 | 8.0 | 9.0 | 0.00 | 0.00 | 0.00 | 90 | 1018.5 |
| 20260505213432 | 64 | 135 | 9.0 | 9.0 | 0.00 | 0.00 | 0.00 | 93 | 1018.5 |
| 20260505212932 | 64 | 180 | 4.0 | 7.0 | 0.00 | 0.00 | 0.00 | 93 | 1018.5 |
| 20260505212428 | 63 | 135 | 6.0 | 7.0 | 0.00 | 0.00 | 0.00 | 94 | 1018.5 |
| 20260505211925 | 63 | 135 | 6.0 | 6.0 | 0.00 | 0.00 | 0.00 | 94 | 1018.5 |
| 20260505211422 | 63 | 135 | 3.0 | 5.0 | 0.00 | 0.00 | 0.00 | 94 | 1018.5 |
| 20260505210920 | 62 | 135 | 4.0 | 5.0 | 0.00 | 0.00 | 0.00 | 94 | 1018.5 |
| 20260505210424 | 62 | 135 | 3.0 | 3.0 | 0.00 | 0.00 | 0.00 | 94 | 1018.5 |
| 20260505205916 | 62 | 157 | 3.0 | 4.0 | 0.00 | 0.00 | 0.00 | 94 | 1018.3 |
| 20260505205414 | 62 | 135 | 3.0 | 4.0 | 0.00 | 0.00 | 0.00 | 94 | 1018.4 |
| 20260505204911 | 62 | 157 | 4.0 | 4.0 | 0.00 | 0.00 | 0.00 | 94 | 1018.3 |
| 20260505204423 | 61 | 135 | 4.0 | 4.0 | 0.00 | 0.00 | 0.00 | 93 | 1018.3 |
| 20260505203907 | 62 | 157 | 4.0 | 4.0 | 0.00 | 0.00 | 0.00 | 93 | 1018.1 |
| 20260505203405 | 62 | 180 | 3.0 | 3.0 | 0.00 | 0.00 | 0.00 | 92 | 1018.2 |
| 20260505202902 | 62 | 180 | 2.0 | 2.0 | 0.00 | 0.00 | 0.00 | 92 | 1018.1 |
| 20260505202400 | 62 | 157 | 2.0 | 2.0 | 0.00 | 0.00 | 0.00 | 92 | 1018.0 |
| 20260505201857 | 62 | 135 | 2.0 | 3.0 | 0.00 | 0.00 | 0.00 | 92 | 1018.0 |
| 20260505201355 | 62 | 180 | 2.0 | 4.0 | 0.00 | 0.00 | 0.00 | 91 | 1017.9 |
| 20260505200853 | 62 | 180 | 2.0 | 4.0 | 0.00 | 0.00 | 0.00 | 91 | 1017.9 |
| 20260505200351 | 63 | 180 | 3.0 | 4.0 | 0.00 | 0.00 | 0.00 | 91 | 1017.9 |
| 20260505195849 | 63 | 146 | 3.0 | 4.0 | 0.00 | 0.00 | 0.00 | 91 | 1017.8 |
| 20260505195346 | 63 | 146 | 4.0 | 4.0 | 0.00 | 0.00 | 0.00 | 91 | 1017.8 |
| 20260505194844 | 63 | 135 | 3.0 | 5.0 | 0.00 | 0.00 | 0.00 | 90 | 1017.7 |
| 20260505194342 | 63 | 135 | 4.0 | 6.0 | 0.00 | 0.00 | 0.00 | 90 | 1017.8 |
| 20260505193839 | 63 | 157 | 4.0 | 5.0 | 0.00 | 0.00 | 0.00 | 90 | 1017.6 |
| 20260505193337 | 63 | 135 | 3.0 | 5.0 | 0.00 | 0.00 | 0.00 | 90 | 1017.6 |
| 20260505192834 | 63 | 168 | 5.0 | 6.0 | 0.00 | 0.00 | 0.00 | 90 | 1017.5 |
| 20260505192334 | 64 | 135 | 4.0 | 5.0 | 0.00 | 0.00 | 0.00 | 89 | 1017.6 |
| 20260505191830 | 64 | 146 | 4.0 | 5.0 | 0.00 | 0.00 | 0.00 | 89 | 1017.5 |
| 20260505191328 | 64 | 135 | 4.0 | 4.0 | 0.00 | 0.00 | 0.00 | 89 | 1017.5 |
| 20260505190826 | 64 | 135 | 3.0 | 4.0 | 0.00 | 0.00 | 0.00 | 88 | 1017.4 |
| 20260505190326 | 64 | 135 | 4.0 | 5.0 | 0.00 | 0.00 | 0.00 | 88 | 1017.4 |
| 20260505185821 | 64 | 135 | 3.0 | 4.0 | 0.00 | 0.00 | 0.00 | 88 | 1017.4 |
| 20260505184816 | 65 | 135 | 5.0 | 5.0 | 0.00 | 0.00 | 0.00 | 88 | 1017.2 |
| 20260505184314 | 65 | 135 | 4.0 | 5.0 | 0.00 | 0.00 | 0.00 | 87 | 1017.0 |
| 20260505183812 | 65 | 135 | 3.0 | 5.0 | 0.00 | 0.00 | 0.00 | 87 | 1017.0 |
| 20260505183309 | 65 | 180 | 3.0 | 5.0 | 0.00 | 0.00 | 0.00 | 87 | 1017.0 |
| 20260505182807 | 65 | 146 | 4.0 | 5.0 | 0.00 | 0.00 | 0.00 | 87 | 1017.0 |
| 20260505182306 | 65 | 180 | 5.0 | 7.0 | 0.00 | 0.00 | 0.00 | 87 | 1017.0 |